Weather History for St. Johnsbury, VT

Change the Weather History Date:

Monday, November 12, 2012

  Actual Average Record
Temperature  
Mean Temperature 49 °F 38 °F  
Max Temperature 66 °F 46 °F 66 °F (2012)
Min Temperature 31 °F 29 °F 10 °F (1976)
Degree Days  
Heating Degree Days 16 27  
Month to date heating degree days 327 304  
Since 1 July heating degree days 1054 1091  
Moisture  
Dew Point 39 °F    
Average Humidity 70    
Maximum Humidity 100    
Minimum Humidity 40    
Precipitation  
Precipitation 0.00 in 0.10 in 1.40 in (1947)
Month to date precipitation 0.06 1.39  
Year to date precipitation 29.75 34.41  
Sea Level Pressure  
Sea Level Pressure 30.27 in    
Wind  
Wind Speed - (North)    
Max Wind Speed -    
Max Gust Speed -    
T = Trace of Precipitation, MM = Missing Value Source: NWS Daily Summary

Daily Weather History Graph

Daily Weather History Graph

Search for Another Location

Airport:

Trip Planner

Search our weather history database for the weather conditions in past years. The results will help you decide how hot, cold, wet, or windy it might be!

Date:

Astronomy

Nov. 12, 2012 Rise Set
Actual Time 6:40 AM EST 4:23 PM EST
Civil Twilight 6:09 AM EST 4:54 PM EST
Nautical Twilight 5:34 AM EST 5:29 PM EST
Astronomical Twilight 5:00 AM EST 6:03 PM EST
Moon 5:00 AM EST (11/12) 3:27 PM EST (11/12)
Length of Visible Light 10h 44m
Length of Day
9h 42m
Waning Crescent, 2% of the Moon is Illuminated
Nov 12
Waning Crescent
Nov 13
New
Nov 20
First Quarter
Nov 28
Full
Dec 6
Last Quarter

Hourly Weather History & Observations

Time (EST) Temp. Dew Point Humidity Pressure Visibility Wind Dir Wind Speed Gust Speed Precip Events Conditions
12:54 AM 34.0 °F 32.0 °F 92% 30.38 in - North - - N/A   Unknown
1:54 AM 34.0 °F 32.0 °F 92% 30.39 in - North - - N/A   Unknown
2:54 AM 33.1 °F 30.9 °F 92% 30.38 in - North - - N/A   Unknown
3:54 AM 32.0 °F 30.9 °F 96% 30.37 in - North - - N/A   Unknown
4:54 AM 32.0 °F 30.0 °F 92% 30.39 in - North - - N/A   Unknown
5:54 AM 30.9 °F 30.0 °F 96% 30.38 in - North - - N/A   Unknown
6:54 AM 30.9 °F 30.0 °F 96% 30.39 in - North - - N/A   Unknown
7:54 AM 33.1 °F 30.9 °F 92% 30.38 in - North - - N/A   Unknown
8:54 AM 37.0 °F 33.1 °F 86% 30.37 in - North - - N/A   Unknown
9:54 AM 46.9 °F 37.9 °F 71% 30.34 in - North - - N/A   Unknown
10:54 AM 59.0 °F 41.0 °F 51% 30.30 in - North - - N/A   Unknown
11:54 AM 61.0 °F 39.9 °F 46% 30.27 in - North - - N/A   Unknown
12:54 PM 64.9 °F 41.0 °F 42% 30.25 in - North - - N/A   Unknown
1:54 PM 66.0 °F 41.0 °F 40% 30.23 in - North - - N/A   Unknown
2:54 PM 64.9 °F 42.1 °F 43% 30.22 in - North - - N/A   Unknown
3:54 PM 64.9 °F 42.1 °F 43% 30.21 in - North - - N/A   Unknown
4:54 PM 62.1 °F 42.1 °F 48% 30.20 in - North - - N/A   Unknown
5:54 PM 61.0 °F 41.0 °F 48% 30.20 in - North - - N/A   Unknown
6:54 PM 60.1 °F 42.1 °F 51% 30.19 in - North - - N/A   Unknown
7:54 PM 59.0 °F 46.9 °F 64% 30.17 in - North - - N/A   Unknown
8:54 PM 60.1 °F 48.0 °F 64% 30.12 in - North - - N/A   Unknown
9:54 PM 61.0 °F 48.9 °F 64% 30.11 in - North - - N/A   Unknown
10:54 PM 55.0 °F 50.0 °F 83% 30.09 in - North - - N/A   Unknown
11:54 PM 60.1 °F 50.0 °F 69% 30.05 in - North - - N/A   Unknown